Date,TemperatureHighF,TemperatureAvgF,TemperatureLowF,DewpointHighF,DewpointAvgF,DewpointLowF,HumidityHigh,HumidityAvg,HumidityLow,PressureMaxIn,PressureMinIn,WindSpeedMaxMPH,WindSpeedAvgMPH,GustSpeedMaxMPH,PrecipitationSumIn
2012-12-1,29.9,28.7,26.7,29.9,24.8,15.8,100,86,58,30.66,30.52,11,3,11,0.00
2012-12-2,51.8,40.0,29.9,49.5,39.3,29.9,100,97,86,30.52,30.05,15,2,16,0.02
2012-12-3,57.7,48.3,33.8,49.7,44.7,33.8,100,88,67,30.32,30.03,21,3,21,0.01
2012-12-4,54.4,44.6,31.9,54.4,44.5,31.9,100,100,98,30.34,29.99,8,0,8,0.00
2012-12-5,56.8,49.6,32.3,56.1,41.8,21.1,100,76,55,30.15,29.83,23,5,25,0.01
2012-12-6,40.6,31.3,23.3,23.2,21.6,20.0,89,68,48,30.34,30.14,16,2,16,0.00
2012-12-7,43.8,36.2,23.1,42.5,33.7,20.1,100,91,77,30.32,30.05,7,0,7,0.05
2012-12-8,44.4,42.4,41.0,44.3,42.4,41.0,100,100,100,30.06,29.88,13,1,13,0.27
2012-12-9,44.5,41.8,36.8,44.3,39.5,35.3,100,92,74,30.33,29.97,10,1,10,0.09
2012-12-10,57.6,49.4,42.6,57.5,49.4,42.6,100,100,100,30.20,29.50,9,0,10,0.46
2012-12-11,48.9,42.7,31.0,48.4,38.6,28.2,100,86,69,30.16,29.53,16,2,16,0.01
2012-12-12,38.0,31.8,26.8,28.3,26.6,25.4,95,81,63,30.45,30.16,9,1,9,0.00
2012-12-13,44.5,32.2,26.3,32.1,28.1,25.3,100,86,54,30.49,30.31,7,0,7,0.00
2012-12-14,50.6,37.6,28.4,31.8,28.5,24.2,99,72,37,30.31,30.05,20,2,20,0.00
2012-12-15,41.3,34.0,28.3,30.6,27.3,24.5,90,77,58,30.37,30.17,16,2,16,0.00
2012-12-16,36.3,33.7,29.7,36.2,30.5,24.1,100,88,77,30.36,30.12,8,1,9,0.19
2012-12-17,45.7,41.9,35.3,45.7,41.9,35.3,100,100,100,30.12,29.83,10,1,10,0.53
2012-12-18,51.6,46.6,41.2,51.6,46.6,41.2,100,100,100,29.82,29.39,14,2,14,0.80
2012-12-19,43.7,40.8,36.8,41.7,37.7,34.3,100,89,74,30.05,29.43,24,6,24,0.01
2012-12-20,40.7,37.3,31.0,38.5,34.3,30.4,100,89,75,30.22,30.05,10,1,10,0.00
2012-12-21,51.4,45.1,39.3,51.4,43.8,36.1,100,95,80,30.06,29.11,23,4,23,0.55
2012-12-22,39.5,36.2,29.2,36.3,29.2,18.9,89,76,57,29.64,29.24,24,5,24,0.00
2012-12-23,40.7,33.1,26.9,27.8,22.7,17.3,76,66,51,29.88,29.64,19,3,0,0.00
2012-12-24,41.7,33.4,27.2,26.6,23.4,19.9,80,67,49,30.08,29.87,17,2,0,0.00
2012-12-25,33.4,30.9,26.5,30.3,27.0,21.1,98,86,67,30.24,30.00,11,2,0,0.00
2012-12-26,38.1,30.2,20.1,36.1,25.9,16.1,100,84,74,30.35,29.98,15,2,0,0.20
2012-12-27,47.0,37.9,29.6,47.0,37.9,29.5,100,100,100,29.98,29.25,31,7,0,1.62
2012-12-28,36.3,31.3,27.5,31.4,26.4,23.1,100,82,69,30.02,29.61,22,5,0,0.00
2012-12-29,36.4,30.6,27.0,36.4,29.1,25.5,100,94,86,30.02,29.41,18,2,0,0.09
2012-12-30,28.1,25.9,21.4,27.9,22.8,13.2,100,89,70,29.96,29.42,24,6,0,0.00
2012-12-31,34.1,28.5,19.8,27.8,23.0,12.9,84,80,69,30.05,29.78,17,3,17,0.01